This demonstration page uses our WeatherBlox Daily Observations layout. Learn more.

Left ArrowRight Arrow

39.08367, -84.50855

Hourly Observations for August 4, 2015

Temp ( °F °C ) Dew Point ( °F °C ) Humidity (%) Winds ( mph kmh ) Pressure ( in mb ) Visibility ( mi km ) Precip ( " mm )
12:53 am 00:53 Mostly Cloudy with Mist and Fog 66 19 66 19 100 100 N N/A 29.91 1013 6 10 N/A
1:37 am 01:37 Clear with Mist and Fog 67 19.4 67 19.4 100 100 N N/A 29.91 1013 2 3 N/A
1:53 am 01:53 Clear with Mist and Fog 67 19.4 67 19.4 100 100 N N/A 29.92 1013 3 5 N/A
2:08 am 02:08 Mostly Clear with Mist and Fog 66 19 66 19 100 100 N N/A 29.91 1013 2 3 N/A
2:28 am 02:28 Mostly Cloudy with Mist and Fog 66 19 66 19 100 100 E 3 6 29.91 1013 1 1 N/A
2:39 am 02:39 Mostly Cloudy with Mist and Fog 66 18.9 66 18.9 100 100 N N/A 29.91 1013 3 4 N/A
2:46 am 02:46 Mostly Cloudy with Mist and Fog 67 19.4 67 19.4 100 100 N 5 7 29.91 1013 4 6 N/A
2:53 am 02:53 Cloudy with Mist and Fog 67 19.4 67 19.4 100 100 NNE 5 7 29.93 1014 5 8 N/A
3:46 am 03:46 Clear with Mist and Fog 66 19 66 19 100 100 N N/A 29.91 1013 2 3 N/A
3:53 am 03:53 Mostly Cloudy with Mist and Fog 65 18.3 65 18.3 100 100 N N/A 29.93 1013 1 1 N/A
3:57 am 03:57 Mostly Clear with Mist and Fog 66 18.9 66 18.9 100 100 N N/A 29.91 1013 2 2 N/A
3:59 am 03:59 Clear with Mist and Fog 67 19.4 67 19.4 100 100 N N/A 29.91 1013 3 5 N/A
4:37 am 04:37 Clear with Mist and Fog 66 18.9 66 18.9 100 100 N N/A 29.91 1013 2 3 N/A
4:47 am 04:47 Clear with Mist and Fog 64 18 64 18 100 100 N N/A 29.91 1013 1 1 N/A
4:53 am 04:53 Mostly Cloudy with Fog 64 17.8 64 17.8 100 100 N N/A 29.93 1014 1 1 N/A
4:58 am 04:58 Mostly Cloudy with Fog 64 18 64 18 100 100 N N/A 29.91 1013 0 0 N/A
5:14 am 05:14 Mostly Cloudy with Fog 64 18 64 18 100 100 N N/A 29.91 1013 1 1 N/A
5:27 am 05:27 Mostly Cloudy with Mist and Fog 64 17.8 64 17.8 100 100 N N/A 29.91 1013 1 1 N/A
5:31 am 05:31 Mostly Cloudy with Fog 64 17.8 64 17.8 100 100 N N/A 29.91 1013 0 0 N/A
5:46 am 05:46 Mostly Cloudy with Fog 64 17.8 64 17.8 100 100 N N/A 29.91 1013 1 1 N/A
5:53 am 05:53 Mostly Cloudy with Fog 64 17.8 64 17.8 100 100 N N/A 29.94 1014 0 0 N/A
6:12 am 06:12 Mostly Cloudy with Mist and Fog 64 18 64 18 100 100 N N/A 29.94 1014 1 2 N/A
6:27 am 06:27 Mostly Cloudy with Fog 63 17.2 63 17.2 100 100 N N/A 29.94 1014 0 0 N/A
6:53 am 06:53 Cloudy with Fog 64 17.8 64 17.8 100 100 N N/A 29.96 1015 1 1 N/A
7:53 am 07:53 Cloudy with Fog 66 18.9 66 18.9 100 100 N N/A 29.97 1015 1 1 N/A
8:00 am 08:00 Cloudy with Fog 66 19 66 19 100 100 N N/A 29.94 1014 5 8 N/A
8:38 am 08:38 Partly Cloudy with Fog 66 19 66 19 100 100 N N/A 29.97 1015 1 1 N/A
8:48 am 08:48 Mostly Cloudy with Mist and Fog 66 19 66 19 100 100 N N/A 29.97 1015 1 2 N/A
8:53 am 08:53 Mostly Cloudy with Mist and Fog 68 20 68 20 100 100 N N/A 29.98 1015 1 2 N/A
9:00 am 09:00 Cloudy with Mist and Fog 67 19.4 67 19.4 100 100 N N/A 29.97 1015 3 4 N/A
9:10 am 09:10 Cloudy with Mist and Fog 66 19 66 19 100 100 N N/A 29.97 1015 3 5 N/A
9:15 am 09:15 Partly Cloudy with Mist and Fog 67 19.4 67 19.4 100 100 N N/A 29.97 1015 2 3 N/A
9:27 am 09:27 Partly Cloudy with Mist and Fog 68 20 68 20 100 100 N N/A 29.94 1014 4 6 N/A
9:53 am 09:53 Partly Cloudy with Mist and Fog 71 21.7 70 21.1 96 96 undefined N/A 29.97 1015 4 6 N/A
10:53 am 10:53 Sunny 76 24.4 71 21.7 85 85 VRB 3 6 29.98 1015 10 16 N/A
11:53 am 11:53 Mostly Sunny 81 27.2 67 19.4 62 62 W 8 13 29.98 1015 10 16 N/A
12:53 pm 12:53 Sunny 82 27.8 60 15.6 47 47 W 12 19 29.97 1015 10 16 N/A
1:53 pm 13:53 Mostly Sunny 83 28.3 62 16.7 49 49 W 12 19 29.96 1015 10 16 N/A
2:53 pm 14:53 Sunny 84 28.9 58 14.4 41 41 WNW 10 17 29.96 1015 10 16 N/A
3:53 pm 15:53 Sunny 83 28.3 56 13.3 40 40 WNW 7 11 29.96 1015 10 16 N/A
4:53 pm 16:53 Sunny 81 27.2 57 13.9 44 44 WNW 9 15 29.96 1014 10 16 N/A
5:53 pm 17:53 Sunny 80 26.7 63 17.2 56 56 W 14 22 29.96 1015 10 16 N/A
6:53 pm 18:53 Sunny 80 26.7 61 16.1 52 52 WNW 9 15 29.97 1015 10 16 N/A
7:53 pm 19:53 Mostly Sunny 78 25.6 61 16.1 56 56 NW 6 9 29.96 1015 10 16 N/A
8:53 pm 20:53 Clear 70 21.1 65 18.3 84 84 N N/A 29.98 1015 10 16 N/A
9:53 pm 21:53 Partly Cloudy 70 21.1 65 18.3 84 84 SW 3 6 30.01 1016 10 16 N/A
10:53 pm 22:53 Clear 68 20 65 18.3 90 90 NNE 3 6 30.02 1017 10 16 N/A
11:53 pm 23:53 Clear 66 18.9 65 18.3 96 96 SE 3 6 30.01 1016 10 16 N/A

Powered by AerisWeather